www.pogodaiklimat.ru

Погода и климат >> Архив погоды >> Россия >> Волгоградская область >> Эльтон


АРХИВ ПОГОДЫ в Эльтоне

Время (UTC), дата Ветер
(напр.,м/с)
 
Видим.   Явления Облачность Т
(С)
Тd
(С)
f
(%)
Тe
(С)
Тes
(С)
Комфортность P
(гПа)
Po
(гПа)
Тmin
(С)
Tmax
(С)
R
(мм)
R24
(мм)
S
(см)
18 14.07 СЗ 3 20 км 8/0
[Ac trans Ci]
+20.5 +13.6 65 +23 +23 комфорт 1007.9 1007.2
21 14.07 ЮЗ 1 н/о н/о +17.1 +13.9 81 +18 +18 1007.6 1006.9
00 15.07 СЗ 1 20 км ясно +16.3 +13.2 82 +17 +17 1007.3 1006.6
03 15.07 З 2 20 км 6/0
[Ci]
+18.0 +13.8 76 +19 +20 1007.5 1006.8 +15.4
06 15.07 СЗ 2 20 км ясно +24.5 +13.3 50 +27 +38 жарко 1008.3 1007.6
09 15.07 З 3 20 км 3/3 1000 м
[Cu med, cong]
+26.9 +10.2 35 +27 +38 жарко 1008.2 1007.5
12 15.07 З 3 20 км 3/3 1000 м
[Cu med, cong]
+28.8 +9.3 30 +29 +35 жарко 1008.0 1007.3
15 15.07 С 2 20 км 9/1 600 м
[Sc diur, vesp Ci]
+28.2 +7.5 27 +28 +29 жарко 1008.1 1007.4 +29.1
18 15.07 С 3 20 км 9/0
[Ac trans Ci]
+24.4 +8.3 36 +25 +25 комфорт 1009.0 1008.3
21 15.07 СВ 3 20 км 4/0
[Ci]
+22.0 +10.1 47 +24 +24 комфорт 1009.2 1008.5
00 16.07 СВ 4 20 км 8/0
[Ac trans Ci]
+19.7 +11.4 59 +21 +21 комфорт 1009.1 1008.4
03 16.07 В 4 20 км 10/0
[Ac und]
+20.8 +13.1 61 +23 +24 комфорт 1008.8 1008.1 +18.7
06 16.07 В 4 20 км 10/5 600 м
[Cb cap Ac trans]
+25.8 +12.5 44 +28 +29 жарко 1009.1 1008.4
09 16.07 ЮЗ 3 20 км 10/8 600 м
[Cb cap Ac trans]
+22.5 +14.9 62 +26 +27 жарко 1009.7 1009.0
12 16.07 С 3 20 км в посл. час ливневой дождь 10/8 600 м
[Cb cap Ac trans]
+22.1 +16.1 69 +26 +27 душно 1008.9 1008.2
15 16.07 В 3 20 км 10/8 600 м
[Cb cap Ac trans]
+24.1 +13.8 53 +26 +27 жарко 1008.3 1007.6 +26.3
18 16.07 СВ 2 20 км 8/0
[Ac trans Ci]
+21.1 +14.5 66 +24 +24 комфорт 1008.4 1007.7
21 16.07 В 3 20 км 9/0
[Ci]
+20.3 +15.3 73 +23 +23 комфорт 1007.8 1007.1
00 17.07 В 3 20 км 8/0
[Ac trans Ci]
+19.1 +15.2 78 +21 +21 комфорт 1007.4 1006.7
03 17.07 ЮВ 3 20 км 6/0
[Ac trans]
+20.0 +15.3 74 +23 +24 комфорт 1006.9 1006.2 +18.3
06 17.07 ЮВ 2 20 км 6/0
[Ac trans]
+25.7 +14.1 49 +28 +35 жарко 1006.2 1005.5
09 17.07 Ю 4 20 км 5/5 1000 м
[Cu med, cong]
+29.5 +14.4 40 +32 +37 душно 1005.1 1004.4
12 17.07 ЮЗ 7-11
{11}
20 км 5/3 1000 м
[Cu med, cong Ci]
+29.9 +12.0 33 +31 +33 жарко 1004.8 1004.1
15 17.07 З 5
{11}
20 км 6/3 1000 м
[Cu hum Ci]
+27.8 +13.3 41 +30 +30 жарко 1005.0 1004.3 +30.4
18 17.07 З 3 20 км 3/0
[Ac trans]
+23.4 +14.6 58 +27 +27 душно 1006.5 1005.8
21 17.07 ЮЗ 2 20 км ясно +19.1 +14.9 77 +21 +21 комфорт 1006.9 1006.2
00 18.07 С 1 20 км 5/0
[Ci]
+17.7 +14.5 82 +19 +19 1006.9 1006.2
03 18.07 СЗ 2 20 км 8/0
[Ci]
+20.0 +15.7 76 +23 +25 комфорт 1007.8 1007.1 +16.6
06 18.07 З 3 20 км 3/1 1000 м
[Cu hum Ci fib]
+25.2 +15.0 53 +28 +36 жарко 1008.7 1008.0
09 18.07 З 4 20 км 6/0
[Ci]
+28.3 +11.8 36 +29 +39 жарко 1008.3 1007.6
12 18.07 З 5 20 км 1/0
[Ci fib]
+30.6 +9.5 27 +30 +36 жарко 1007.9 1007.2
15 18.07 СЗ 5 20 км 1/0
[Ac trans]
+30.3 +7.7 24 +29 +30 жарко 1007.9 1007.3 +31.0
18 18.07 С 2 20 км 9/0
[Ac trans Ci]
+25.6 +10.7 39 +27 +27 жарко 1008.9 1008.3
21 18.07 С 2 20 км 8/0
[Ac trans]
+25.2 +10.5 40 +26 +26 жарко 1009.1 1008.4
00 19.07 СЗ 3 20 км 9/0
[Ac trans]
+22.6 +15.1 63 +26 +26 жарко 1009.7 1009.0
03 19.07 С 3 20 км 10/4 600 м
[Cb cap Ac trans]
+22.9 +14.1 58 +26 +27 жарко 1010.9 1010.2 +21.7
06 19.07 СЗ 6 20 км 9/5 600 м
[Cb cap Ac trans Ci]
+25.6 +14.3 50 +28 +29 жарко 1012.1 1011.4
09 19.07 СЗ 4 20 км 9/0
[Ac trans Ci]
+27.7 +10.3 34 +28 +34 жарко 1012.3 1011.6
12 19.07 З 4 20 км 4/4 1000 м
[Cu hum]
+29.4 +12.0 34 +30 +34 жарко 1011.9 1011.2
15 19.07 СЗ 5 20 км 8/0
[Ci]
+29.9 +9.2 28 +30 +30 жарко 1011.8 1011.1 +30.3
18 19.07 С 2 20 км 1/0
[Ci fib]
+24.7 +10.6 41 +26 +26 жарко 1013.1 1012.5
21 19.07 С 1 20 км 8/0
[Ci]
+22.5 +11.1 48 +25 +25 комфорт 1013.4 1012.7
00 20.07 штиль 0 20 км 10/0
[Ac und]
+19.6 +12.0 61 +21 +21 комфорт 1014.0 1013.3
03 20.07 С 1 20 км 10/0
[Ac und]
+21.0 +13.4 62 +25 +25 комфорт 1015.3 1014.6 +19.5
06 20.07 СЗ 2 20 км 6/4 600 м
[Cb cap Ac trans]
+26.8 +11.4 38 +28 +33 жарко 1016.2 1015.5
09 20.07 З 5 20 км 3/3 1000 м
[Cu med, cong]
+30.2 +7.4 24 +29 +35 жарко 1016.5 1015.8
12 20.07 З 6-10
{11}
20 км 3/3 1000 м
[Cu hum]
+31.4 +5.1 19 +29 +32 жарко 1016.3 1015.6
15 20.07 СЗ 5
{11}
20 км ясно +30.3 +6.3 22 +29 +30 жарко 1016.4 1015.7 +31.4
18 20.07 С 3 20 км 3/0
[Ac trans]
+25.7 +6.6 30 +26 +26 жарко 1017.2 1016.5
21 20.07 ЮЗ 1 20 км 3/0
[Ac trans]
+19.9 +9.3 50 +22 +22 комфорт 1017.6 1016.9
00 21.07 С 1 20 км 3/0
[Ac trans]
+19.7 +9.1 50 +22 +22 комфорт 1018.0 1017.3
03 21.07 СЗ 2 20 км 1/0
[Ci fib]
+21.9 +11.2 51 +24 +26 комфорт 1018.5 1017.8 +16.5
06 21.07 З 3 20 км ясно +29.1 +8.3 27 +29 +38 жарко 1018.5 1017.8
09 21.07 СЗ 2 20 км 1/1 1000 м
[Cu hum]
+31.1 +3.7 18 +29 +44 жарко 1017.5 1016.8
12 21.07 СЗ 4 20 км 8/1 1000 м
[Cu hum Ci]
+32.1 +2.8 16 +29 +35 жарко 1016.6 1015.9

 

Местоположение метеостанции Эльтон (Волгоградская область, Россия): широта 49.13 долгота 46.85 высота над уровнем моря 6 м.

В архиве по умолчанию представлена погода в Эльтоне за последнюю неделю. Архивные данные за месяц целиком и за предыдущие месяцы, начиная с января 2011 года, Вы можете получить, выбрав интересующий диапазон дат из раскрывающегося списка и нажав кнопку "Ввод!".


*Определитесь, кто Вы:
робот инопланетянин человек

Внимание! Время в таблицах - всемирное. Для получения местного времени необходимо прибавить поправку, которая равна 3 ч.

Смотрите также архив погоды в соседних городах и на ближайших метеорологических станциях:

Погода в Жанибеке (Западно-Казахстанская область, Казахстан) (30 км)
Погода в Жанаказане (Западно-Казахстанская область, Казахстан) (43 км)
Погода в Урде (Западно-Казахстанская область, Казахстан) (58 км)
Погода в Верхнем Баскунчаке (Астраханская область, Россия) (102 км)
Погода в Палласовке (Волгоградская область, Россия) (102 км)
Погода в Черный Яр (Астраханская область, Россия) (130 км)
Погода в Казталовке (Западно-Казахстанская область, Казахстан) (149 км)
Погода в Камышине (Волгоградская область, Россия) (149 км)
Погода в Александровом Гае (Саратовская область, Россия) (167 км)
Погода в Новоузенске (Саратовская область, Россия) (171 км)

Пояснения к столбцам:

Ветер - указаны скорость ветра в м/с - средняя за 10 мин, порывы в срок и между сроками (в фигурных скобках) и направление, откуда дует ветер: С - северный, СВ - северо-восточный, В - восточный, ЮВ - юго-восточный, Ю - южный, ЮЗ - юго-западный, З - западный, СЗ - северо-западный.
Видимость - горизонтальная дальность видимости в метрах или километрах. При видимости от 1 до 10 км при отсутствии осадков обычно наблюдается дымка, при ухудшении видимости до 1 км и менее - туман. В сухую погоду видимость может ухудшаться дымом, пылью или мглою.
Явления - указаны атмосферные явления, наблюдавшиеся в срок или в последний час перед сроком; фигурными скобками обозначены явления, наблюдавшиеся между сроками (за 1-3 часа до срока); квадратными скобками обозначены град или гололедные отложения с указанием их диаметра в мм.
Облачность - указаны через наклонную черту общая и нижняя облачность в баллах и высота нижней границы облаков в метрах; квадратными скобками обозначены формы облаков: Ci - перистые, Cs - перисто-слоистые, Cc - перисто-кучевые, Ac - высококучевые, As - высокослоистые, Sc - слоисто-кучевые, Ns - слоисто-дождевые, Cu - кучевые, Cb - кучево-дождевые. Подробнее классификацию облаков см. в Атласе облаков (PDF).
T - Температура воздуха - температура, измеренная на высоте 2 м над землей.
Td - Температура точки росы - температура, при понижении до которой содержащийся в воздухе водяной пар достигнет насыщения.
f - Относительная влажность воздуха - влажноcть воздуха, измеренная на высоте 2 м над землей.
Te - Эффективная температура - температура, которую ощущает одетый по сезону человек в тени. Характеристика душности погоды. При расчете учитывается влияние влажности воздуха и скорости ветра на теплоощущения человека.
Tes - Эффективная температура на солнце - температура, которую ощущает человек, с поправкой на солнечный нагрев. Характеристика знойности погоды. Зависит от высоты солнца над горизонтом, облачности и скорости ветра. Ночью, в пасмурную погоду, а также при ветре 12 м/с и более поправка равна нулю.
P - Атмосферное давление - приведенное к уровню моря атмосферное давление.
Po - Атмосферное давление - измеренное на уровне метеостанции атмосферное давление.
Tmin - Минимальная температура - минимум температуры воздуха на высоте 2 м над землей.
Tmax - Максимальная температура - максимум температуры воздуха на высоте 2 м над землей.
R - Количество осадков - Количество выпавших осадков за период времени, мм. При наведении курсора мыши на число - период времени, за который выпало указанное количество осадков.
R24 - Количество осадков - Количество выпавших осадков за 24 часа, мм.
S - Снежный покров - Высота снежного покрова, см. При наведении курсора мыши на число - состояние снежного покрова и степень покрытия местности в баллах.